• In Uzbekistan
  • List of Countries
  • For 7 days
  • Water Temperature
  • Satellite Maps
  • Weather Map
  • Weather Widgets
  • user-avatar
    Login

    Hourly Weather Klagenfurt

    Today, 23 March, Thursday

    Time Temperature Precipitation Wind Pressure Humidity
    00:00 +6°C° 0 mm 1 mps 687 mmHg 98%
    01:00 +6°C° 0 mm 1 mps 687 mmHg 97%
    02:00 +6°C° 0.1 mm 1 mps 687 mmHg 97%
    03:00 +6°C° 0.1 mm 1 mps 687 mmHg 97%
    04:00 +6°C° 0.1 mm 1 mps 687 mmHg 97%
    05:00 +6°C° 0.1 mm 1 mps 687 mmHg 97%
    06:00 +6°C° 0.1 mm 1 mps 687 mmHg 96%
    07:00 +7°C° 0.1 mm 1 mps 688 mmHg 96%
    08:00 +8°C° 0.1 mm 1 mps 688 mmHg 90%
    09:00 +10°C° 0.1 mm 1 mps 688 mmHg 84%
    10:00 +10°C° 0.1 mm 2 mps 689 mmHg 79%
    11:00 +12°C° 0.1 mm 2 mps 689 mmHg 75%
    12:00 +13°C° 0.1 mm 2 mps 689 mmHg 71%
    13:00 +13°C° 0.1 mm 2 mps 689 mmHg 67%
    14:00 +13°C° 0 mm 2 mps 689 mmHg 67%
    15:00 +13°C° 0 mm 2 mps 689 mmHg 67%
    16:00 +13°C° 0 mm 2 mps 689 mmHg 68%
    17:00 +10°C° 0 mm 2 mps 689 mmHg 77%
    18:00 +8°C° 0 mm 2 mps 689 mmHg 85%
    19:00 +8°C° 0 mm 1 mps 689 mmHg 94%
    20:00 +7°C° 0 mm 1 mps 690 mmHg 95%
    21:00 +7°C° 0 mm 1 mps 690 mmHg 95%
    22:00 +7°C° 0 mm 1 mps 691 mmHg 96%
    23:00 +6°C° 0 mm 1 mps 691 mmHg 96%

    Tomorrow, 24 March, Friday

    Time Temperature Precipitation Wind Pressure Humidity
    00:00 +6°C° 0 mm 1 mps 691 mmHg 96%
    01:00 +6°C° 0 mm 1 mps 691 mmHg 96%
    02:00 +6°C° 0 mm 1 mps 691 mmHg 96%
    03:00 +6°C° 0 mm 1 mps 691 mmHg 96%
    04:00 +5°C° 0 mm 1 mps 691 mmHg 96%
    05:00 +6°C° 0 mm 1 mps 691 mmHg 94%
    06:00 +6°C° 0 mm 1 mps 692 mmHg 93%
    07:00 +6°C° 0 mm 1 mps 692 mmHg 92%
    08:00 +9°C° 0 mm 1 mps 693 mmHg 83%
    09:00 +11°C° 0 mm 1 mps 694 mmHg 74%
    10:00 +14°C° 0 mm 1 mps 694 mmHg 65%
    11:00 +15°C° 0 mm 1 mps 694 mmHg 61%
    12:00 +16°C° 0 mm 1 mps 695 mmHg 57%
    13:00 +18°C° 0 mm 1 mps 695 mmHg 53%
    14:00 +18°C° 0 mm 1 mps 694 mmHg 54%
    15:00 +16°C° 0 mm 1 mps 694 mmHg 56%
    16:00 +16°C° 0 mm 1 mps 694 mmHg 57%
    17:00 +14°C° 0 mm 1 mps 694 mmHg 68%
    18:00 +11°C° 0 mm 1 mps 693 mmHg 79%
    19:00 +8°C° 0 mm 0 mps 693 mmHg 89%
    20:00 +8°C° 0 mm 1 mps 694 mmHg 90%
    21:00 +8°C° 0 mm 1 mps 694 mmHg 91%
    22:00 +8°C° 0 mm 1 mps 695 mmHg 92%
    23:00 +8°C° 0 mm 1 mps 695 mmHg 93%

    Day after tomorrow, 25 March, Saturday

    Time Temperature Precipitation Wind Pressure Humidity
    00:00 +8°C° 0 mm 1 mps 695 mmHg 94%
    01:00 +8°C° 0 mm 1 mps 695 mmHg 95%
    02:00 +7°C° 0 mm 1 mps 695 mmHg 95%
    03:00 +7°C° 0 mm 1 mps 694 mmHg 96%
    04:00 +7°C° 0 mm 1 mps 694 mmHg 97%
    05:00 +7°C° 0 mm 1 mps 694 mmHg 95%
    06:00 +7°C° 0 mm 1 mps 694 mmHg 94%
    07:00 +7°C° 0 mm 1 mps 694 mmHg 93%
    08:00 +8°C° 0 mm 1 mps 694 mmHg 87%
    09:00 +8°C° 0 mm 2 mps 695 mmHg 81%
    10:00 +9°C° 0 mm 2 mps 695 mmHg 75%
    11:00 +10°C° 0 mm 2 mps 694 mmHg 73%
    12:00 +10°C° 0 mm 2 mps 694 mmHg 71%
    13:00 +10°C° 0 mm 2 mps 694 mmHg 69%
    14:00 +10°C° 0 mm 2 mps 693 mmHg 70%
    15:00 +10°C° 0 mm 2 mps 693 mmHg 71%
    16:00 +10°C° 0 mm 2 mps 692 mmHg 72%
    17:00 +8°C° 0 mm 2 mps 692 mmHg 78%
    18:00 +8°C° 0 mm 1 mps 692 mmHg 84%
    19:00 +7°C° 0 mm 1 mps 691 mmHg 90%
    20:00 +6°C° 0 mm 1 mps 691 mmHg 92%
    21:00 +6°C° 0 mm 1 mps 691 mmHg 93%
    22:00 +5°C° 0 mm 1 mps 691 mmHg 95%
    23:00 +5°C° 0 mm 1 mps 691 mmHg 95%

    26 March, Sunday

    Time Temperature Precipitation Wind Pressure Humidity
    00:00 +5°C° 0 mm 1 mps 690 mmHg 95%
    01:00 +5°C° 0 mm 1 mps 690 mmHg 95%
    02:00 +4°C° 0 mm 1 mps 689 mmHg 96%
    03:00 +4°C° 0 mm 1 mps 689 mmHg 96%
    04:00 +4°C° 0 mm 1 mps 688 mmHg 96%
    05:00 +3°C° 0 mm 0 mps 688 mmHg 95%
    06:00 +4°C° 0 mm 0 mps 688 mmHg 93%
    07:00 +4°C° 0 mm 0 mps 688 mmHg 92%
    08:00 +7°C° 0 mm 1 mps 688 mmHg 86%
    09:00 +8°C° 0 mm 1 mps 688 mmHg 79%
    10:00 +10°C° 0 mm 1 mps 688 mmHg 73%
    11:00 +10°C° 0.1 mm 1 mps 688 mmHg 71%
    12:00 +10°C° 0.1 mm 1 mps 688 mmHg 69%
    13:00 +11°C° 0.1 mm 1 mps 687 mmHg 67%
    14:00 +10°C° 0.2 mm 1 mps 687 mmHg 68%
    15:00 +9°C° 0.2 mm 2 mps 687 mmHg 68%
    16:00 +9°C° 0.2 mm 2 mps 687 mmHg 68%
    17:00 +8°C° 0.5 mm 2 mps 687 mmHg 75%
    18:00 +6°C° 0.5 mm 2 mps 687 mmHg 82%
    19:00 +5°C° 0.5 mm 2 mps 687 mmHg 88%
    20:00 +4°C° 0.2 mm 2 mps 688 mmHg 90%
    21:00 +3°C° 0.2 mm 2 mps 688 mmHg 91%
    22:00 +3°C° 0.2 mm 2 mps 688 mmHg 92%
    23:00 +2°C° 0.1 mm 2 mps 689 mmHg 92%

    27 March, Monday

    Time Temperature Precipitation Wind Pressure Humidity
    00:00 +2°C° 0.1 mm 2 mps 689 mmHg 91%
    01:00 +2°C° 0.1 mm 2 mps 689 mmHg 91%
    02:00 +1°C° 0.1 mm 2 mps 689 mmHg 91%
    03:00 +1°C° 0.1 mm 2 mps 689 mmHg 91%
    04:00 -1°C° 0.1 mm 2 mps 690 mmHg 91%
    05:00 -1°C° 0 mm 2 mps 690 mmHg 88%
    06:00 -1°C° 0 mm 2 mps 691 mmHg 85%
    07:00 -1°C° 0 mm 2 mps 691 mmHg 82%
    08:00 +1°C° 0 mm 2 mps 692 mmHg 74%
    09:00 +1°C° 0 mm 3 mps 692 mmHg 65%
    10:00 +3°C° 0 mm 3 mps 693 mmHg 57%
    11:00 +4°C° 0 mm 3 mps 693 mmHg 53%
    12:00 +5°C° 0 mm 4 mps 693 mmHg 48%
    13:00 +6°C° 0 mm 4 mps 693 mmHg 44%
    14:00 +6°C° 0 mm 4 mps 693 mmHg 44%
    15:00 +5°C° 0 mm 4 mps 693 mmHg 44%
    16:00 +5°C° 0 mm 4 mps 693 mmHg 45%
    17:00 +3°C° 0 mm 3 mps 693 mmHg 53%
    18:00 +2°C° 0 mm 2 mps 693 mmHg 62%
    19:00 -1°C° 0 mm 2 mps 693 mmHg 71%
    20:00 -1°C° 0 mm 2 mps 693 mmHg 73%
    21:00 -2°C° 0 mm 2 mps 693 mmHg 76%
    22:00 -2°C° 0 mm 2 mps 694 mmHg 78%
    23:00 -1°C° 0 mm 1 mps 694 mmHg 78%

    28 March, Tuesday

    Time Temperature Precipitation Wind Pressure Humidity
    00:00 -1°C° 0 mm 1 mps 694 mmHg 79%
    01:00 -1°C° 0 mm 1 mps 694 mmHg 79%
    02:00 -1°C° 0 mm 1 mps 693 mmHg 78%
    03:00 -2°C° 0 mm 1 mps 693 mmHg 76%
    04:00 -2°C° 0 mm 1 mps 693 mmHg 74%
    05:00 -1°C° 0 mm 1 mps 693 mmHg 70%
    06:00 0°C° 0 mm 1 mps 694 mmHg 65%
    07:00 +1°C° 0 mm 1 mps 694 mmHg 60%
    08:00 +3°C° 0 mm 1 mps 694 mmHg 52%
    09:00 +5°C° 0 mm 2 mps 695 mmHg 43%
    10:00 +7°C° 0 mm 2 mps 695 mmHg 35%
    11:00 +8°C° 0 mm 2 mps 695 mmHg 33%
    12:00 +9°C° 0 mm 2 mps 695 mmHg 31%
    13:00 +10°C° 0 mm 2 mps 695 mmHg 30%
    14:00 +10°C° 0 mm 2 mps 695 mmHg 33%
    15:00 +10°C° 0 mm 2 mps 694 mmHg 36%
    16:00 +9°C° 0 mm 2 mps 694 mmHg 38%
    17:00 +6°C° 0 mm 2 mps 694 mmHg 52%
    18:00 +4°C° 0 mm 1 mps 693 mmHg 66%
    19:00 +1°C° 0 mm 1 mps 693 mmHg 80%
    20:00 +1°C° 0 mm 1 mps 693 mmHg 81%
    21:00 +1°C° 0 mm 1 mps 694 mmHg 82%
    22:00 +1°C° 0 mm 1 mps 694 mmHg 83%
    23:00 +1°C° 0 mm 1 mps 694 mmHg 84%
    Show more